Time,TemperatureF,DewpointF,PressureIn,WindDirection,WindDirectionDegrees,WindSpeedMPH,WindSpeedGustMPH,Humidity,HourlyPrecipIn,Conditions,Clouds,dailyrainin,SoftwareType,DateUTC
2013-03-28 00:04:00,41.4,39.0,30.13,WSW,247,0.0,-999.0,91,-99.99,,,0.00,Acu-Link.com,2013-03-28 04:04:00,
2013-03-28 00:19:00,40.6,37.6,30.12,WSW,247,0.0,-999.0,89,-99.99,,,0.00,Acu-Link.com,2013-03-28 04:19:00,
2013-03-28 00:34:00,40.5,37.8,30.11,WSW,247,0.0,-999.0,90,-99.99,,,0.00,Acu-Link.com,2013-03-28 04:34:00,
2013-03-28 00:50:00,40.3,37.9,30.11,WSW,247,0.0,-999.0,91,-99.99,,,0.00,Acu-Link.com,2013-03-28 04:50:00,
2013-03-28 01:05:00,39.6,36.6,30.10,WSW,247,0.0,-999.0,89,-99.99,,,0.00,Acu-Link.com,2013-03-28 05:05:00,
2013-03-28 01:20:00,39.9,37.8,30.10,WSW,247,0.0,-999.0,92,-99.99,,,0.00,Acu-Link.com,2013-03-28 05:20:00,
2013-03-28 01:35:00,39.4,37.0,30.09,WSW,247,0.0,-999.0,91,-99.99,,,0.00,Acu-Link.com,2013-03-28 05:35:00,
2013-03-28 01:51:00,39.2,37.1,30.10,WSW,247,0.0,-999.0,92,-99.99,,,0.00,Acu-Link.com,2013-03-28 05:51:00,
2013-03-28 02:21:00,42.4,41.6,30.10,West,270,1.1,-999.0,97,-99.99,,,0.00,Acu-Link.com,2013-03-28 06:21:00,
2013-03-28 02:52:00,43.0,41.4,30.10,West,270,1.7,-999.0,94,-99.99,,,0.00,Acu-Link.com,2013-03-28 06:52:00,
2013-03-28 03:07:00,43.0,41.1,30.10,SW,225,2.2,-999.0,93,-99.99,,,0.00,Acu-Link.com,2013-03-28 07:07:00,
2013-03-28 03:23:00,42.8,40.9,30.09,West,270,1.1,-999.0,93,-99.99,,,0.00,Acu-Link.com,2013-03-28 07:23:00,
2013-03-28 03:38:00,42.8,40.6,30.10,West,270,3.2,-999.0,92,-99.99,,,0.00,Acu-Link.com,2013-03-28 07:38:00,
2013-03-28 03:53:00,43.0,40.8,30.09,WSW,247,0.0,-999.0,92,-99.99,,,0.00,Acu-Link.com,2013-03-28 07:53:00,
2013-03-28 04:08:00,43.0,40.6,30.09,West,270,0.0,-999.0,91,-99.99,,,0.00,Acu-Link.com,2013-03-28 08:08:00,
2013-03-28 04:23:00,43.0,40.6,30.09,SW,225,0.0,-999.0,91,-99.99,,,0.00,Acu-Link.com,2013-03-28 08:23:00,
2013-03-28 04:38:00,43.0,40.6,30.09,SW,225,1.7,-999.0,91,-99.99,,,0.00,Acu-Link.com,2013-03-28 08:38:00,
2013-03-28 04:54:00,42.8,40.4,30.10,West,270,1.7,-999.0,91,-99.99,,,0.00,Acu-Link.com,2013-03-28 08:54:00,
2013-03-28 05:09:00,42.8,40.4,30.09,West,270,1.7,-999.0,91,-99.99,,,0.00,Acu-Link.com,2013-03-28 09:09:00,
2013-03-28 05:24:00,42.4,40.0,30.10,West,270,0.0,-999.0,91,-99.99,,,0.00,Acu-Link.com,2013-03-28 09:24:00,
2013-03-28 05:39:00,42.1,39.7,30.10,WSW,247,0.0,-999.0,91,-99.99,,,0.00,Acu-Link.com,2013-03-28 09:39:00,
2013-03-28 05:55:00,41.5,39.4,30.11,West,270,0.0,-999.0,92,-99.99,,,0.00,Acu-Link.com,2013-03-28 09:55:00,
2013-03-28 06:10:00,41.2,39.1,30.10,West,270,0.0,-999.0,92,-99.99,,,0.00,Acu-Link.com,2013-03-28 10:10:00,
2013-03-28 06:25:00,41.2,39.3,30.11,West,270,0.0,-999.0,93,-99.99,,,0.00,Acu-Link.com,2013-03-28 10:25:00,
2013-03-28 06:41:00,40.8,38.9,30.12,WNW,292,0.0,-999.0,93,-99.99,,,0.00,Acu-Link.com,2013-03-28 10:41:00,
2013-03-28 07:11:00,40.6,39.0,30.12,South,180,0.0,-999.0,94,-99.99,,,0.00,Acu-Link.com,2013-03-28 11:11:00,
2013-03-28 07:26:00,41.0,39.4,30.12,WSW,247,0.0,-999.0,94,-99.99,,,0.00,Acu-Link.com,2013-03-28 11:26:00,
2013-03-28 07:42:00,41.2,39.9,30.11,West,270,0.0,-999.0,95,-99.99,,,0.00,Acu-Link.com,2013-03-28 11:42:00,
2013-03-28 07:57:00,42.4,40.8,30.12,WNW,292,0.0,-999.0,94,-99.99,,,0.00,Acu-Link.com,2013-03-28 11:57:00,
2013-03-28 08:12:00,45.3,42.5,30.13,SW,225,0.0,-999.0,90,-99.99,,,0.00,Acu-Link.com,2013-03-28 12:12:00,
2013-03-28 08:28:00,48.2,43.6,30.13,SW,225,1.7,-999.0,84,-99.99,,,0.00,Acu-Link.com,2013-03-28 12:28:00,
2013-03-28 08:43:00,50.7,43.8,30.13,WSW,247,1.7,-999.0,77,-99.99,,,0.00,Acu-Link.com,2013-03-28 12:43:00,
2013-03-28 08:58:00,53.1,43.6,30.15,WNW,292,2.7,-999.0,70,-99.99,,,0.00,Acu-Link.com,2013-03-28 12:58:00,
2013-03-28 09:14:00,53.6,42.9,30.14,West,270,4.2,-999.0,67,-99.99,,,0.00,Acu-Link.com,2013-03-28 13:14:00,
2013-03-28 09:29:00,55.6,41.5,30.14,West,270,2.2,-999.0,59,-99.99,,,0.00,Acu-Link.com,2013-03-28 13:29:00,
2013-03-28 09:44:00,57.6,42.0,30.15,WNW,292,2.2,-999.0,56,-99.99,,,0.00,Acu-Link.com,2013-03-28 13:44:00,
2013-03-28 09:59:00,60.1,41.4,30.15,WNW,292,1.7,-999.0,50,-99.99,,,0.00,Acu-Link.com,2013-03-28 13:59:00,
2013-03-28 10:14:00,61.5,38.2,30.16,WNW,292,3.2,-999.0,42,-99.99,,,0.00,Acu-Link.com,2013-03-28 14:14:00,
2013-03-28 10:29:00,64.0,37.9,30.16,SE,135,2.7,-999.0,38,-99.99,,,0.00,Acu-Link.com,2013-03-28 14:29:00,
2013-03-28 10:45:00,62.6,34.6,30.16,NW,315,4.2,-999.0,35,-99.99,,,0.00,Acu-Link.com,2013-03-28 14:45:00,
2013-03-28 11:00:00,65.3,35.5,30.16,ESE,112,0.0,-999.0,33,-99.99,,,0.00,Acu-Link.com,2013-03-28 15:00:00,
2013-03-28 11:15:00,67.8,36.1,30.17,SE,135,2.2,-999.0,31,-99.99,,,0.00,Acu-Link.com,2013-03-28 15:15:00,
2013-03-28 11:30:00,67.3,34.8,30.17,SSE,157,1.7,-999.0,30,-99.99,,,0.00,Acu-Link.com,2013-03-28 15:30:00,
2013-03-28 11:46:00,65.8,31.8,30.16,West,270,1.1,-999.0,28,-99.99,,,0.00,Acu-Link.com,2013-03-28 15:46:00,
2013-03-28 12:32:00,69.6,34.1,30.15,ESE,112,3.7,-999.0,27,-99.99,,,0.00,Acu-Link.com,2013-03-28 16:32:00,
2013-03-28 12:47:00,71.4,34.7,30.15,North,0,1.7,-999.0,26,-99.99,,,0.00,Acu-Link.com,2013-03-28 16:47:00,
2013-03-28 13:02:00,72.3,36.4,30.15,West,270,2.7,-999.0,27,-99.99,,,0.00,Acu-Link.com,2013-03-28 17:02:00,
2013-03-28 13:17:00,71.8,37.8,30.14,SE,135,3.2,-999.0,29,-99.99,,,0.00,Acu-Link.com,2013-03-28 17:17:00,
2013-03-28 13:33:00,73.4,40.9,30.13,NW,315,2.2,-999.0,31,-99.99,,,0.00,Acu-Link.com,2013-03-28 17:33:00,
2013-03-28 13:48:00,70.5,39.2,30.13,ESE,112,6.8,-999.0,32,-99.99,,,0.00,Acu-Link.com,2013-03-28 17:48:00,
2013-03-28 14:03:00,70.7,39.4,30.12,ESE,112,4.7,-999.0,32,-99.99,,,0.00,Acu-Link.com,2013-03-28 18:03:00,
2013-03-28 14:19:00,70.9,42.6,30.11,ESE,112,4.2,-999.0,36,-99.99,,,0.00,Acu-Link.com,2013-03-28 18:19:00,
2013-03-28 14:34:00,69.8,41.6,30.10,ESE,112,3.7,-999.0,36,-99.99,,,0.00,Acu-Link.com,2013-03-28 18:34:00,
2013-03-28 14:49:00,71.1,44.2,30.10,SSE,157,2.2,-999.0,38,-99.99,,,0.00,Acu-Link.com,2013-03-28 18:49:00,
2013-03-28 15:05:00,73.2,45.4,30.10,SSE,157,4.2,-999.0,37,-99.99,,,0.00,Acu-Link.com,2013-03-28 19:05:00,
2013-03-28 15:20:00,71.1,46.8,30.09,SE,135,5.3,-999.0,42,-99.99,,,0.00,Acu-Link.com,2013-03-28 19:20:00,
2013-03-28 15:35:00,70.3,46.1,30.08,SE,135,8.9,-999.0,42,-99.99,,,0.00,Acu-Link.com,2013-03-28 19:35:00,
2013-03-28 15:50:00,69.3,45.8,30.08,NE,45,3.7,-999.0,43,-99.99,,,0.00,Acu-Link.com,2013-03-28 19:50:00,
2013-03-28 16:05:00,69.8,45.7,30.07,NW,315,2.7,-999.0,42,-99.99,,,0.00,Acu-Link.com,2013-03-28 20:05:00,
2013-03-28 16:20:00,71.2,46.3,30.06,SE,135,4.2,-999.0,41,-99.99,,,0.00,Acu-Link.com,2013-03-28 20:20:00,
2013-03-28 16:36:00,70.2,45.4,30.06,ENE,67,6.3,-999.0,41,-99.99,,,0.00,Acu-Link.com,2013-03-28 20:36:00,
2013-03-28 16:51:00,70.2,44.7,30.06,ENE,67,1.7,-999.0,40,-99.99,,,0.00,Acu-Link.com,2013-03-28 20:51:00,
2013-03-28 17:06:00,67.6,43.1,30.07,ESE,112,3.2,-999.0,41,-99.99,,,0.00,Acu-Link.com,2013-03-28 21:06:00,
2013-03-28 17:21:00,67.5,43.0,30.07,SSE,157,4.2,-999.0,41,-99.99,,,0.00,Acu-Link.com,2013-03-28 21:21:00,
2013-03-28 17:37:00,67.5,43.0,30.08,ESE,112,3.7,-999.0,41,-99.99,,,0.00,Acu-Link.com,2013-03-28 21:37:00,
2013-03-28 17:52:00,66.9,42.4,30.07,East,90,4.2,-999.0,41,-99.99,,,0.00,Acu-Link.com,2013-03-28 21:52:00,
2013-03-28 18:07:00,66.0,42.9,30.07,ESE,112,4.2,-999.0,43,-99.99,,,0.00,Acu-Link.com,2013-03-28 22:07:00,
2013-03-28 18:22:00,68.0,43.4,30.08,SE,135,1.7,-999.0,41,-99.99,,,0.00,Acu-Link.com,2013-03-28 22:22:00,
2013-03-28 18:38:00,66.9,42.4,30.08,ESE,112,2.2,-999.0,41,-99.99,,,0.00,Acu-Link.com,2013-03-28 22:38:00,
2013-03-28 18:53:00,65.8,43.9,30.08,East,90,2.2,-999.0,45,-99.99,,,0.00,Acu-Link.com,2013-03-28 22:53:00,
2013-03-28 19:08:00,63.3,43.3,30.09,West,270,1.7,-999.0,48,-99.99,,,0.00,Acu-Link.com,2013-03-28 23:08:00,
2013-03-28 19:23:00,61.5,43.7,30.10,WSW,247,2.2,-999.0,52,-99.99,,,0.00,Acu-Link.com,2013-03-28 23:23:00,
2013-03-28 19:38:00,60.1,43.4,30.09,ESE,112,0.0,-999.0,54,-99.99,,,0.00,Acu-Link.com,2013-03-28 23:38:00,
2013-03-28 19:54:00,58.6,43.9,30.10,SE,135,0.0,-999.0,58,-99.99,,,0.00,Acu-Link.com,2013-03-28 23:54:00,
2013-03-28 20:09:00,57.7,43.5,30.11,ESE,112,0.0,-999.0,59,-99.99,,,0.00,Acu-Link.com,2013-03-29 00:09:00,
2013-03-28 20:24:00,57.0,43.7,30.10,NNE,22,0.0,-999.0,61,-99.99,,,0.00,Acu-Link.com,2013-03-29 00:24:00,
2013-03-28 20:40:00,55.8,43.8,30.11,South,180,0.0,-999.0,64,-99.99,,,0.00,Acu-Link.com,2013-03-29 00:40:00,
2013-03-28 20:55:00,54.7,43.6,30.11,South,180,0.0,-999.0,66,-99.99,,,0.00,Acu-Link.com,2013-03-29 00:55:00,
2013-03-28 21:10:00,53.4,43.1,30.12,ESE,112,0.0,-999.0,68,-99.99,,,0.00,Acu-Link.com,2013-03-29 01:10:00,
2013-03-28 21:26:00,52.9,43.8,30.11,ESE,112,0.0,-999.0,71,-99.99,,,0.00,Acu-Link.com,2013-03-29 01:26:00,
2013-03-28 21:41:00,51.6,42.1,30.13,ESE,112,0.0,-999.0,70,-99.99,,,0.00,Acu-Link.com,2013-03-29 01:41:00,
2013-03-28 22:11:00,49.8,42.9,30.13,WSW,247,0.0,-999.0,77,-99.99,,,0.00,Acu-Link.com,2013-03-29 02:11:00,
2013-03-28 22:27:00,48.9,42.0,30.13,WSW,247,0.0,-999.0,77,-99.99,,,0.00,Acu-Link.com,2013-03-29 02:27:00,
2013-03-28 22:42:00,48.6,43.7,30.13,WSW,247,0.0,-999.0,83,-99.99,,,0.00,Acu-Link.com,2013-03-29 02:42:00,
2013-03-28 22:57:00,48.2,43.6,30.13,WSW,247,0.0,-999.0,84,-99.99,,,0.00,Acu-Link.com,2013-03-29 02:57:00,
2013-03-28 23:13:00,47.7,43.1,30.13,WSW,247,0.0,-999.0,84,-99.99,,,0.00,Acu-Link.com,2013-03-29 03:13:00,
2013-03-28 23:28:00,47.1,42.8,30.14,WSW,247,0.0,-999.0,85,-99.99,,,0.00,Acu-Link.com,2013-03-29 03:28:00,
2013-03-28 23:43:00,47.1,43.7,30.13,WSW,247,0.0,-999.0,88,-99.99,,,0.00,Acu-Link.com,2013-03-29 03:43:00,
2013-03-28 23:59:00,46.9,44.1,30.13,WSW,247,0.0,-999.0,90,-99.99,,,0.00,Acu-Link.com,2013-03-29 03:59:00,